Flag for U.S.A. Weather past 2 weeks in Washington DC, District of Columbia, U.S.A.

Now
66 °F

Light rain. Overcast.


Feels Like: 66 °F
Forecast: 62 / 75 °F
Wind: 6 mph from East

Location: Reagan National Airport

Current Time: Oct 1, 2014 at 9:08:06 AM

Latest Report: Oct 1, 2014 at 7:52 AM


Visibility: 10 mi

Pressure: 30.00 "Hg

Humidity: 84%

Dew point: 61 °F

Location of Washington DCLocation

Historic Weather in Washington DC — Graph

°F

Washington DC temperature yesterday

Maximum temperature yesterday: 78 °F (at 5:52 PM)
Minimum temperature yesterday: 67 °F (at 4:52 AM)
Average temperature yesterday: 71 °F

Past Weeks' High & Low Weather Summary

 TemperatureHumidityPressure
High85 °F (Sep 21, 2:52 PM)88% (Sep 25, 4:02 AM)30.46 "Hg (Sep 25, 4:02 AM)
Low54 °F (Sep 23, 6:52 AM)30% (Sep 23, 4:52 PM)29.65 "Hg (Sep 21, 5:52 PM)
Average70 °F63%30.12 "Hg
* Reported Sep 16 7:52 AM — Oct 1 7:52 AM, Washington DC, Weather by CustomWeather, © 2014

Note: Actual official high and low records may vary slightly from our data, if they occured in-between our weather recording intervals... More about our weather records

Advertising

Washington DC weather history for previous 24 hours

 ConditionsComfort  
Time TempWeatherWind HumidityBarometerVisibility
7:52 AM
Oct 1
66 °FLight rain. Overcast.6 mph84%30.00 "Hg10 mi
6:52 AM66 °FLight rain. Overcast.3 mph81%29.99 "Hg5 mi
5:52 AM67 °FLight rain. Overcast.8 mph79%29.97 "Hg10 mi
4:52 AM67 °FMostly cloudy.8 mph81%29.96 "Hg10 mi
3:52 AM68 °FOvercast.10 mph82%29.96 "Hg10 mi
2:59 AM68 °FOvercast.9 mph83%29.96 "Hg10 mi
2:00 AM70 °FMostly cloudy.7 mph78%29.96 "Hg10 mi
12:52 AM69 °FLight rain. Mostly cloudy.6 mph79%29.95 "Hg10 mi
11:52 PM
Sep 30
68 °FOvercast.7 mph82%29.95 "Hg10 mi
10:52 PM70 °FLight rain. Mostly cloudy.10 mph76%29.94 "Hg10 mi
9:52 PM72 °FPassing clouds.5 mph68%29.94 "Hg10 mi
8:52 PM70 °FPassing clouds.5 mph73%29.91 "Hg10 mi
7:52 PM72 °FPassing clouds.5 mph71%29.89 "Hg10 mi
6:52 PM73 °FScattered clouds.7 mph71%29.88 "Hg10 mi
5:52 PM78 °FBroken clouds.7 mph54%29.86 "Hg10 mi
4:52 PM77 °FPassing clouds.No wind54%29.87 "Hg10 mi
3:52 PM77 °FPassing clouds.3 mph56%29.88 "Hg10 mi
2:52 PM75 °FPassing clouds.3 mph60%29.89 "Hg10 mi
1:52 PM74 °FScattered clouds.5 mph62%29.92 "Hg10 mi
12:52 PM71 °FOvercast.5 mph68%29.93 "Hg10 mi
11:52 AM70 °FOvercast.6 mph73%29.94 "Hg10 mi
10:52 AM69 °FOvercast.No wind76%29.94 "Hg10 mi
9:52 AM68 °FOvercast.6 mph82%29.94 "Hg7 mi
Weather by CustomWeather, © 2014

See weather overviewHow to use our weather pages